Location: A�t Lahcen
(32.8243°N, 5.4246°W)
Time: 02:03:46
(UTC+00:00)

SJ-7 - Pass Details

Date: 27 January 2021
Orbit: 554 x 603 km, 97.7° (Epoch: 26 February)

Event Time Altitude Azimuth Distance (km) Brightness Sun altitude
Rises 06:15:18 0° 6° (N) 2,802 7.9 -13.7°
Reaches altitude 10° 06:17:30 10° 3° (N) 1,891 6.9 -13.3°
Maximum altitude 06:21:31 57° 284° (WNW) 672 4.4 -12.5°
Drops below altitude 10° 06:25:27 10° 206° (SSW) 1,851 6.9 -11.7°
Sets 06:27:35 0° 202° (SSW) 2,737 7.8 -11.2°
